Location: Hains Lake
(37.8540°N, 99.8578°W)
Time: 08:25:04
(UTC+00:00)

Vanguard 3 - Pass Details

Date: 26 April 2021
Orbit: 508 x 3262 km, 33.3° (Epoch: 09 May)

Event Time Altitude Azimuth Distance (km) Brightness Sun altitude
Rises 02:30:21 0° 199° (SSW) 6,539 11.7 -12.7°
Reaches altitude 10° 02:37:54 10° 180° (S) 4,932 10.8 -14.0°
Maximum altitude 02:44:07 15° 152° (SSE) 3,952 10.1 -15.0°
Enters shadow 02:45:12 14° 146° (SE) 3,856 10.0 -15.2°
